This is the latest recevied weather packets stored in our database for station/object W4MSI. If no packets are shown the sender has not sent any weather packets the latest 10 day(s).
| Time | Temp. | Humidity | Pressure | Rain* | Wind** | Luminosity | Snow |
|---|---|---|---|---|---|---|---|
| 1777427993 | 17.22° C | 95% | 1014.5 hPa | 7.87 mm | - | 0 W/m² | - |
| 1777427690 | 17.22° C | 95% | 1015.9 hPa | 10.67 mm | - | 0 W/m² | - |
| 1777427387 | 17.22° C | 95% | 1015.9 hPa | 9.65 mm | - | 0 W/m² | - |
| 1777427083 | 17.22° C | 95% | 1015.9 hPa | 9.65 mm | - | 0 W/m² | - |
| 1777426781 | 17.22° C | 96% | 1015.6 hPa | 7.11 mm | - | 0 W/m² | - |
| 1777426478 | 17.22° C | 96% | 1015.8 hPa | 7.87 mm | - | 0 W/m² | - |
| 1777426173 | 17.22° C | 96% | 1015.8 hPa | 6.1 mm | - | 0 W/m² | - |
| 1777425868 | 17.22° C | 96% | 1015.7 hPa | 7.87 mm | - | 0 W/m² | - |
| 1777425565 | 17.22° C | 96% | 1015.5 hPa | 10.67 mm | - | 0 W/m² | - |
| 1777425265 | 17.22° C | 95% | 1015.7 hPa | 13.21 mm | - | 0 W/m² | - |
| 1777424962 | 17.22° C | 95% | 1015.7 hPa | 21.59 mm | - | 0 W/m² | - |
| 1777424658 | 17.22° C | 95% | 1015.9 hPa | 25.91 mm | - | 0 W/m² | - |
| 1777424353 | 17.22° C | 94% | 1016 hPa | 19.81 mm | - | 0 W/m² | - |
| 1777424049 | 17.78° C | 94% | 1016.1 hPa | 7.11 mm | - | 0 W/m² | - |
| 1777423746 | 17.78° C | 93% | 1016.1 hPa | 8.89 mm | - | 0 W/m² | - |
| 1777423442 | 18.33° C | 92% | 1015.9 hPa | 7.87 mm | - | 0 W/m² | - |
| 1777423137 | 18.33° C | 93% | 1015.6 hPa | 7.87 mm | - | 0 W/m² | - |
| 1777422832 | 18.33° C | 92% | 1014.7 hPa | 4.83 mm | - | 0 W/m² | - |
| 1777422527 | 18.89° C | 93% | 1014.2 hPa | 3.05 mm | - | 0 W/m² | - |
| 1777422223 | 19.44° C | 92% | 1013.4 hPa | 3.05 mm | - | 0 W/m² | - |
| 1777421923 | 19.44° C | 88% | 1012.9 hPa | 0 mm | - | 0 W/m² | - |
| 1777421618 | 20° C | 87% | 1013.3 hPa | 3.05 mm | - | 0 W/m² | - |
| 1777421313 | 20° C | 90% | 1013.8 hPa | 4.83 mm | - | 0 W/m² | - |
| 1777421011 | 20.56° C | 93% | 1014.2 hPa | 3.05 mm | - | 1 W/m² | - |
| 1777420706 | 20.56° C | 92% | 1014.2 hPa | 3.05 mm | - | 1 W/m² | - |
* Rain latest hour (hover to see other rain measurements)
** Current wind speed in m/s (hover to see current wind gust speed)